Home   Weather   Vila Nova de Gaia   Past weeks

Flag for Portugal Past Weather in Vila Nova de Gaia, Portugal — Yesterday and Last 2 Weeks

68 °F

Passing clouds.

Feels Like: 68 °F
Forecast: 59 / 64 °F
Wind: 12 mph from Southeast

Location: Porto / Pedras Rubras

Current Time: Oct 21, 2016 at 2:11:46 PM

Latest Report: Oct 21, 2016 at 1:30 PM

Visibility: N/A

Pressure: 29.86 "Hg

Humidity: 56%

Dew Point: 52 °F

Location of Vila Nova de GaiaLocation

Past Weather in Vila Nova de Gaia — Graph


Vila Nova de Gaia Temperature Yesterday

Maximum temperature yesterday: 70 °F (at 11:00 AM)
Minimum temperature yesterday: 59 °F (at 11:30 PM)
Average temperature yesterday: 64 °F

High & Low Weather Summary for the Past Weeks

High77 °F (Oct 19, 3:30 PM)100% (Oct 6, 5:30 PM)30.27 "Hg (Oct 6, 5:30 PM)
Low48 °F (Oct 14, 7:00 AM)52% (Oct 14, 12:00 PM)29.56 "Hg (Oct 12, 4:00 PM)
Average61 °F92%29.96 "Hg
* Reported Oct 6 1:00 PM — Oct 21 1:00 PM, Vila Nova de Gaia, Weather by CustomWeather, © 2016

Note: Actual official high and low records may vary slightly from our data, if they occured in-between our weather recording intervals... More about our weather records


Vila Nova de Gaia Weather History for the Previous 24 Hours

Scroll right to see more
Time TempWeatherWind HumidityBarometerVisibility
1:00 PM
Fri, Oct 21
66 °FSunny.10 mph60%29.86 "Hg10 mi
12:30 PM68 °FPassing clouds.9 mph56%29.86 "HgN/A
12:00 PM68 °FPassing clouds.9 mph56%29.86 "HgN/A
11:30 AM66 °FScattered clouds.10 mph60%29.89 "HgN/A
11:00 AM64 °FPartly sunny.8 mph68%29.89 "HgN/A
10:30 AM63 °FPartly sunny.7 mph77%29.89 "HgN/A
10:00 AM61 °FPartly sunny.5 mph83%29.89 "HgN/A
9:30 AM57 °FPartly sunny.5 mph100%29.89 "HgN/A
9:00 AM57 °FPartly sunny.No wind100%29.86 "HgN/A
8:30 AM57 °FFog.3 mph100%29.86 "Hg2 mi
8:00 AM55 °FCool.No wind100%29.86 "Hg1 mi
7:30 AM55 °FFog.No wind100%29.86 "Hg0 mi
7:00 AM57 °FFog.No wind100%29.86 "Hg0 mi
6:30 AM57 °FFog.No wind100%29.86 "Hg1 mi
6:00 AM57 °FFog.2 mph100%29.86 "Hg0 mi
5:30 AM57 °FFog.2 mph100%29.86 "Hg0 mi
5:00 AM57 °FFog.No wind100%29.86 "Hg0 mi
4:30 AM57 °FDense fog.2 mph100%29.86 "Hg1 mi
4:00 AM57 °FFog.No wind100%29.86 "Hg0 mi
3:30 AM57 °FFog.No wind100%29.86 "Hg0 mi
3:00 AM59 °FFog.2 mph100%29.86 "Hg1 mi
2:30 AM57 °FLight fog.No wind100%29.86 "Hg1 mi
2:00 AM57 °FFog.No wind100%29.86 "Hg1 mi
1:30 AM61 °FFog.No wind100%29.89 "Hg3 mi
1:00 AM59 °FFog.No wind100%29.89 "Hg2 mi
12:30 AM61 °FFog.No wind100%29.89 "Hg2 mi
12:00 AM59 °FFog.No wind100%29.89 "Hg1 mi
11:30 PM
Thu, Oct 20
59 °FFog.No wind100%29.89 "Hg1 mi
11:00 PM61 °FFog.No wind100%29.89 "Hg1 mi
10:30 PM61 °FFog.No wind100%29.89 "Hg2 mi
10:00 PM61 °FFog.1 mph100%29.89 "Hg2 mi
9:30 PM61 °FFog.No wind100%29.89 "Hg1 mi
9:00 PM61 °FFog.No wind94%29.89 "Hg2 mi
8:30 PM61 °FFog.No wind100%29.89 "Hg3 mi
8:00 PM61 °FFog.No wind100%29.89 "Hg3 mi
7:30 PM61 °FFog.2 mph100%29.89 "Hg3 mi
7:00 PM63 °FFog.No wind94%29.89 "Hg2 mi
6:30 PM63 °FLow clouds.No wind94%29.89 "Hg1 mi
6:00 PM63 °FMild.No wind94%29.89 "Hg2 mi
5:30 PM63 °FPartly sunny.3 mph94%29.89 "Hg1 mi
5:00 PM63 °FFog.3 mph100%29.89 "Hg1 mi
4:30 PM64 °FFog.3 mph94%29.89 "Hg2 mi
4:00 PM64 °FFog.6 mph94%29.89 "Hg2 mi
3:30 PM66 °FScattered clouds.6 mph88%29.92 "Hg4 mi
3:00 PM68 °FScattered clouds.6 mph83%29.92 "Hg5 mi
2:30 PM68 °FPassing clouds.6 mph83%29.92 "Hg5 mi
2:00 PM68 °FScattered clouds.5 mph83%29.92 "Hg5 mi
Weather by CustomWeather, © 2016

See weather overviewHow to use our weather pages